When you browse on this site, cookies collect data to enhance your experience and personalize the content and advertising you see.
Visit our Privacy Policy to learn more. By continuing to use the site, you agree to this use of cookies and data.
  • In Czech Republic
  • List of Countries
  • For 7 days
  • Water Temperature
  • Satellite Maps
  • Weather Map
  • Weather Widgets
  • user-avatar
    Login

    Hourly Weather Alcala de Guadaira

    Today, 19 February, Tuesday

    Time Temperature Precipitation Wind Pressure Humidity
    00:00 +11°C° 0.1 mm 1 mps 759 mmHg 75%
    01:00 +11°C° 0.2 mm 1 mps 759 mmHg 76%
    02:00 +12°C° 0.2 mm 1 mps 759 mmHg 78%
    03:00 +11°C° 0.2 mm 0 mps 759 mmHg 79%
    04:00 +10°C° 0 mm 0 mps 759 mmHg 81%
    05:00 +10°C° 0 mm 0 mps 759 mmHg 83%
    06:00 +9°C° 0 mm 0 mps 759 mmHg 85%
    07:00 +10°C° 0 mm 0 mps 759 mmHg 82%
    08:00 +11°C° 0 mm 0 mps 760 mmHg 78%
    09:00 +12°C° 0 mm 0 mps 760 mmHg 75%
    10:00 +15°C° 0 mm 1 mps 760 mmHg 69%
    11:00 +16°C° 0 mm 1 mps 760 mmHg 63%
    12:00 +19°C° 0 mm 1 mps 759 mmHg 58%
    13:00 +19°C° 0 mm 1 mps 759 mmHg 54%
    14:00 +20°C° 0 mm 1 mps 759 mmHg 50%
    15:00 +21°C° 0 mm 1 mps 758 mmHg 47%
    16:00 +20°C° 0 mm 1 mps 758 mmHg 51%
    17:00 +18°C° 0 mm 1 mps 758 mmHg 55%
    18:00 +16°C° 0 mm 1 mps 759 mmHg 59%
    19:00 +15°C° 0 mm 1 mps 759 mmHg 64%
    20:00 +15°C° 0 mm 1 mps 760 mmHg 68%
    21:00 +14°C° 0 mm 1 mps 760 mmHg 73%
    22:00 +13°C° 0 mm 1 mps 760 mmHg 76%
    23:00 +13°C° 0 mm 1 mps 760 mmHg 78%

    Tomorrow, 20 February, Wednesday

    Time Temperature Precipitation Wind Pressure Humidity
    00:00 +12°C° 0 mm 1 mps 760 mmHg 81%
    01:00 +12°C° 0 mm 1 mps 760 mmHg 83%
    02:00 +11°C° 0 mm 1 mps 760 mmHg 85%
    03:00 +10°C° 0 mm 0 mps 760 mmHg 87%
    04:00 +11°C° 0 mm 1 mps 760 mmHg 87%
    05:00 +10°C° 0 mm 1 mps 760 mmHg 87%
    06:00 +10°C° 0 mm 1 mps 760 mmHg 88%
    07:00 +11°C° 0 mm 1 mps 761 mmHg 83%
    08:00 +12°C° 0 mm 1 mps 761 mmHg 78%
    09:00 +13°C° 0 mm 1 mps 762 mmHg 74%
    10:00 +15°C° 0 mm 2 mps 762 mmHg 67%
    11:00 +17°C° 0 mm 2 mps 762 mmHg 60%
    12:00 +18°C° 0 mm 2 mps 762 mmHg 53%
    13:00 +19°C° 0 mm 2 mps 762 mmHg 50%
    14:00 +21°C° 0 mm 1 mps 761 mmHg 47%
    15:00 +21°C° 0 mm 1 mps 761 mmHg 44%
    16:00 +20°C° 0 mm 1 mps 761 mmHg 48%
    17:00 +19°C° 0 mm 1 mps 761 mmHg 52%
    18:00 +16°C° 0 mm 1 mps 761 mmHg 56%
    19:00 +15°C° 0 mm 1 mps 762 mmHg 59%
    20:00 +14°C° 0 mm 1 mps 762 mmHg 61%
    21:00 +13°C° 0 mm 1 mps 763 mmHg 63%
    22:00 +13°C° 0 mm 1 mps 763 mmHg 66%
    23:00 +12°C° 0 mm 1 mps 763 mmHg 68%

    Day after tomorrow, 21 February, Thursday

    Time Temperature Precipitation Wind Pressure Humidity
    00:00 +11°C° 0 mm 1 mps 763 mmHg 70%
    01:00 +11°C° 0 mm 1 mps 763 mmHg 71%
    02:00 +9°C° 0 mm 2 mps 763 mmHg 72%
    03:00 +9°C° 0 mm 2 mps 763 mmHg 74%
    04:00 +8°C° 0 mm 2 mps 763 mmHg 77%
    05:00 +8°C° 0 mm 2 mps 763 mmHg 80%
    06:00 +8°C° 0 mm 2 mps 763 mmHg 83%
    07:00 +9°C° 0 mm 3 mps 764 mmHg 80%
    08:00 +10°C° 0 mm 3 mps 764 mmHg 77%
    09:00 +11°C° 0 mm 3 mps 765 mmHg 74%
    10:00 +13°C° 0 mm 3 mps 765 mmHg 64%
    11:00 +17°C° 0 mm 3 mps 765 mmHg 55%
    12:00 +19°C° 0 mm 3 mps 765 mmHg 45%
    13:00 +20°C° 0 mm 2 mps 765 mmHg 42%
    14:00 +21°C° 0 mm 2 mps 764 mmHg 38%
    15:00 +21°C° 0 mm 2 mps 764 mmHg 35%
    16:00 +20°C° 0 mm 2 mps 764 mmHg 40%
    17:00 +18°C° 0 mm 2 mps 764 mmHg 46%
    18:00 +16°C° 0 mm 2 mps 765 mmHg 51%
    19:00 +15°C° 0 mm 2 mps 765 mmHg 54%
    20:00 +14°C° 0 mm 2 mps 766 mmHg 57%
    21:00 +12°C° 0 mm 2 mps 767 mmHg 60%
    22:00 +10°C° 0 mm 2 mps 767 mmHg 61%
    23:00 +10°C° 0 mm 2 mps 767 mmHg 63%

    22 February, Friday

    Time Temperature Precipitation Wind Pressure Humidity
    00:00 +9°C° 0 mm 2 mps 767 mmHg 64%
    01:00 +8°C° 0 mm 2 mps 767 mmHg 67%
    02:00 +8°C° 0 mm 2 mps 767 mmHg 69%
    03:00 +8°C° 0 mm 3 mps 767 mmHg 72%
    04:00 +7°C° 0 mm 3 mps 767 mmHg 76%
    05:00 +7°C° 0 mm 3 mps 766 mmHg 79%
    06:00 +7°C° 0 mm 3 mps 766 mmHg 83%
    07:00 +8°C° 0 mm 3 mps 767 mmHg 79%
    08:00 +9°C° 0 mm 3 mps 767 mmHg 74%
    09:00 +11°C° 0 mm 4 mps 767 mmHg 70%
    10:00 +13°C° 0 mm 4 mps 767 mmHg 61%
    11:00 +16°C° 0 mm 3 mps 767 mmHg 52%
    12:00 +19°C° 0 mm 3 mps 767 mmHg 43%
    13:00 +20°C° 0 mm 3 mps 766 mmHg 40%
    14:00 +21°C° 0 mm 2 mps 766 mmHg 36%
    15:00 +23°C° 0 mm 2 mps 765 mmHg 33%
    16:00 +20°C° 0 mm 2 mps 765 mmHg 38%
    17:00 +18°C° 0 mm 2 mps 765 mmHg 43%
    18:00 +17°C° 0 mm 2 mps 765 mmHg 48%
    19:00 +15°C° 0 mm 2 mps 766 mmHg 49%
    20:00 +14°C° 0 mm 1 mps 766 mmHg 50%
    21:00 +12°C° 0 mm 1 mps 766 mmHg 52%
    22:00 +12°C° 0 mm 1 mps 766 mmHg 52%
    23:00 +11°C° 0 mm 1 mps 766 mmHg 52%

    23 February, Saturday

    Time Temperature Precipitation Wind Pressure Humidity
    00:00 +10°C° 0 mm 1 mps 766 mmHg 52%
    01:00 +9°C° 0 mm 2 mps 766 mmHg 51%
    02:00 +8°C° 0 mm 2 mps 766 mmHg 50%
    03:00 +8°C° 0 mm 2 mps 766 mmHg 49%
    04:00 +7°C° 0 mm 2 mps 766 mmHg 49%
    05:00 +7°C° 0 mm 2 mps 766 mmHg 49%
    06:00 +7°C° 0 mm 2 mps 766 mmHg 49%
    07:00 +8°C° 0 mm 2 mps 767 mmHg 50%
    08:00 +10°C° 0 mm 2 mps 767 mmHg 52%
    09:00 +12°C° 0 mm 2 mps 768 mmHg 53%
    10:00 +14°C° 0 mm 2 mps 767 mmHg 48%
    11:00 +17°C° 0 mm 2 mps 767 mmHg 43%
    12:00 +19°C° 0 mm 2 mps 767 mmHg 38%
    13:00 +20°C° 0 mm 2 mps 767 mmHg 36%
    14:00 +21°C° 0 mm 2 mps 766 mmHg 34%
    15:00 +23°C° 0 mm 2 mps 766 mmHg 32%
    16:00 +21°C° 0 mm 1 mps 766 mmHg 37%
    17:00 +19°C° 0 mm 1 mps 766 mmHg 43%
    18:00 +18°C° 0 mm 1 mps 766 mmHg 48%
    19:00 +16°C° 0 mm 1 mps 766 mmHg 49%
    20:00 +15°C° 0 mm 1 mps 767 mmHg 50%
    21:00 +14°C° 0 mm 1 mps 767 mmHg 51%
    22:00 +14°C° 0 mm 1 mps 767 mmHg 52%
    23:00 +13°C° 0 mm 1 mps 767 mmHg 53%

    24 February, Sunday

    Time Temperature Precipitation Wind Pressure Humidity
    00:00 +13°C° 0 mm 1 mps 767 mmHg 54%
    01:00 +13°C° 0 mm 1 mps 767 mmHg 55%
    02:00 +12°C° 0 mm 2 mps 767 mmHg 56%
    03:00 +12°C° 0 mm 2 mps 767 mmHg 57%
    04:00 +10°C° 0 mm 2 mps 767 mmHg 57%
    05:00 +10°C° 0 mm 2 mps 767 mmHg 58%
    06:00 +10°C° 0 mm 2 mps 767 mmHg 58%
    07:00 +12°C° 0 mm 2 mps 767 mmHg 57%
    08:00 +13°C° 0 mm 2 mps 768 mmHg 55%
    09:00 +13°C° 0 mm 3 mps 768 mmHg 54%
    10:00 +17°C° 0 mm 3 mps 768 mmHg 49%
    11:00 +19°C° 0 mm 3 mps 768 mmHg 44%
    12:00 +21°C° 0 mm 4 mps 767 mmHg 39%
    13:00 +22°C° 0 mm 4 mps 767 mmHg 38%
    14:00 +24°C° 0 mm 3 mps 766 mmHg 36%
    15:00 +25°C° 0 mm 3 mps 766 mmHg 34%
    16:00 +22°C° 0 mm 3 mps 766 mmHg 39%
    17:00 +20°C° 0 mm 2 mps 766 mmHg 43%
    18:00 +18°C° 0 mm 2 mps 766 mmHg 48%
    19:00 +17°C° 0 mm 2 mps 766 mmHg 49%
    20:00 +16°C° 0 mm 2 mps 766 mmHg 49%
    21:00 +15°C° 0 mm 2 mps 767 mmHg 50%
    22:00 +14°C° 0 mm 2 mps 767 mmHg 51%
    23:00 +14°C° 0 mm 2 mps 767 mmHg 53%
    Show more